Theta_e
338 341 345 346 349 349 351 354 357 357 360 361 362 362 362 363 363 363 361 361 362 361 362 363 363 360 359 358 355 357 357 357 358 357 359 358 358 355 353 353 351 357 359 358 357 365 360 355 357 356 358 359 361 362 363 365 364 362 364 365 362 361 359
337 341 343 345 347 350 353 355 357 358 359 361 362 362 363 363 364 362 360 361 361 362 362 362 362 360 360 360 360 359 359 360 359 361 360 360 358 355 355 355 356 353 359 360 359 360 358 355 356 358 357 359 360 362 362 362 363 362 360 363 359 358 359
339 342 343 344 345 348 352 353 354 356 359 359 360 361 362 363 364 362 360 360 361 362 362 362 360 359 359 360 358 358 358 357 359 358 357 357 356 356 355 355 354 356 359 360 360 357 357 357 359 359 359 359 358 361 360 360 360 357 358 362 359 357 359
342 343 346 348 349 350 350 352 353 354 355 358 359 361 362 364 365 362 361 361 360 362 359 358 357 356 356 357 356 357 357 357 356 355 355 355 355 354 355 353 355 359 358 359 360 359 359 355 356 359 360 360 359 360 360 356 356 356 356 360 357 357 359
340 343 344 344 344 346 348 348 349 354 354 356 360 362 363 365 365 362 360 360 361 361 360 358 357 356 356 356 355 355 356 355 355 355 354 356 355 354 354 351 354 353 358 361 360 361 360 358 357 355 358 361 360 359 359 356 356 356 357 359 357 355 355
339 341 343 342 342 344 346 348 349 352 356 356 358 360 361 363 363 361 360 360 360 361 358 357 356 355 353 354 354 355 356 355 356 357 355 354 353 354 350 352 354 355 357 359 357 356 357 359 356 353 354 358 359 356 357 356 355 357 358 358 357 354 353
342 342 342 342 341 343 345 348 349 352 355 357 359 359 360 359 360 361 359 356 358 360 359 356 355 354 354 355 353 353 354 354 354 354 354 354 352 351 352 355 357 357 358 360 360 358 358 359 356 355 354 357 357 356 357 357 356 357 358 359 357 356 357
344 343 342 340 341 342 346 350 350 354 355 357 358 359 360 359 357 359 357 357 355 357 361 357 354 355 354 353 352 353 354 353 355 354 354 353 352 350 352 354 356 356 358 357 362 361 358 360 355 354 355 354 357 358 358 358 359 357 357 357 358 356 354
346 347 346 343 343 345 348 352 355 355 357 357 359 359 360 361 358 356 357 357 357 356 357 357 357 357 356 354 353 353 355 356 354 354 353 352 351 351 351 354 356 358 357 357 359 361 360 359 361 360 360 362 360 360 359 361 360 360 359 358 358 357 355
346 347 349 349 349 348 351 353 356 359 360 360 361 360 360 361 362 359 358 356 356 354 356 358 358 359 358 357 356 356 356 355 354 353 352 351 353 352 353 353 355 358 357 357 358 359 359 361 360 357 356 362 361 361 361 360 361 361 361 360 360 359 358
342 345 347 349 351 353 354 354 353 353 355 360 360 359 359 360 362 363 362 360 359 360 356 358 358 357 359 358 357 356 354 355 353 351 351 354 355 355 354 351 353 356 356 358 358 359 360 359 360 357 359 362 360 359 361 360 360 361 361 360 360 360 358
339 340 342 344 346 347 348 351 353 354 356 356 354 357 359 360 358 358 358 359 358 360 359 359 357 357 358 359 356 354 353 352 351 349 348 350 353 354 354 354 354 354 354 357 358 360 360 359 360 359 354 359 355 358 359 360 360 361 361 360 360 360 360
336 338 340 341 342 343 345 345 346 347 349 351 356 356 356 357 356 358 359 359 359 361 361 360 360 359 358 359 357 354 349 347 348 349 349 349 351 354 356 355 354 353 353 355 356 357 358 360 357 356 356 356 357 360 359 359 361 360 361 361 360 359 358
334 335 336 338 340 342 342 344 345 346 347 349 350 352 353 354 355 357 357 357 359 360 360 359 359 359 359 358 355 350 346 345 347 349 352 351 352 355 356 356 355 354 354 354 355 355 356 356 355 358 362 362 362 362 362 362 361 361 360 360 360 359 358
332 332 334 334 336 339 343 343 343 344 346 348 349 350 351 353 356 356 356 358 357 357 358 360 359 360 359 360 352 349 344 344 347 351 355 356 356 356 355 353 353 353 352 353 354 355 357 357 358 356 358 359 360 360 361 361 362 363 361 359 360 361 359
328 330 331 333 335 336 337 341 345 344 344 346 347 348 349 351 353 355 355 355 356 355 356 357 357 359 360 360 356 350 353 351 353 356 357 357 356 357 355 353 352 352 352 353 353 355 356 357 357 358 356 357 359 360 360 359 357 357 358 358 361 360 360
327 327 329 331 332 334 335 336 341 346 344 343 345 346 348 350 351 352 354 355 355 355 355 356 354 356 358 358 361 357 354 356 360 361 359 361 359 358 356 354 353 353 353 353 354 355 356 357 357 356 356 353 355 355 357 357 354 353 343 343 348 361 363
324 325 326 327 330 331 333 334 336 341 345 341 341 343 346 349 350 351 351 354 355 354 355 355 355 354 355 357 358 359 360 361 362 361 360 360 361 358 358 357 356 357 356 355 355 357 358 357 358 358 357 357 358 357 356 357 356 342 340 341 341 350 360
322 323 323 326 326 329 331 333 337 338 340 346 342 341 343 348 348 349 351 353 354 355 354 354 355 355 354 357 358 359 359 359 359 358 359 357 355 362 360 359 358 358 358 358 359 359 358 358 359 359 358 358 357 358 357 356 352 338 339 339 338 341 352
325 326 326 327 328 328 330 333 334 335 337 340 346 345 346 343 344 349 351 353 354 354 354 355 356 356 355 356 358 359 360 359 359 357 358 360 360 360 357 356 357 358 359 358 359 358 358 359 359 360 360 358 357 358 358 357 357 337 337 336 335 337 344
326 326 328 329 328 329 330 331 331 334 335 336 340 347 346 342 339 345 348 351 351 351 352 354 354 356 356 356 357 360 361 360 359 358 360 360 359 357 358 354 357 357 358 358 358 357 357 359 360 361 362 360 358 357 357 357 346 337 335 334 333 334 343
325 326 326 328 328 329 329 329 330 332 334 336 335 334 344 344 343 341 341 348 348 348 351 351 353 354 355 353 358 359 359 357 357 363 361 359 356 353 355 355 357 359 359 358 357 358 359 360 362 362 361 362 361 359 358 360 342 337 334 332 331 334 352
323 324 325 327 326 328 331 331 331 333 334 334 335 334 336 345 343 340 340 340 343 346 347 348 349 352 354 354 354 357 357 357 357 356 360 362 359 357 355 354 355 357 363 361 358 357 357 359 362 362 362 362 361 358 358 360 346 333 332 330 329 336 354
324 325 325 325 327 327 330 331 331 332 332 333 334 336 336 340 344 341 338 337 339 342 343 342 344 347 349 352 355 356 358 355 358 353 351 359 362 360 359 359 358 357 359 358 355 354 357 358 358 359 360 359 361 360 358 359 354 331 329 327 327 343 355
325 325 325 326 326 326 327 329 330 332 332 333 332 334 336 337 341 340 337 337 336 337 340 340 341 341 345 350 354 356 357 358 355 356 356 354 353 356 360 360 358 358 360 357 355 357 357 356 356 357 358 360 360 357 358 360 357 330 327 326 325 339 356
325 325 326 326 327 329 329 331 331 329 329 328 331 333 335 337 339 339 337 337 338 335 337 338 340 344 347 348 350 354 353 353 353 353 355 353 355 356 355 358 358 358 355 358 354 355 356 357 356 356 356 358 361 360 359 358 359 357 325 325 324 328 355
326 327 326 326 327 332 330 330 329 329 329 330 333 334 336 336 335 336 338 337 335 336 338 339 341 344 347 348 348 350 353 356 354 351 352 353 355 356 356 357 357 356 355 355 356 354 353 356 356 355 356 357 360 360 360 360 359 358 328 324 323 325 337
326 327 328 330 330 330 329 328 329 331 330 331 332 333 335 336 335 334 336 336 335 336 340 341 341 343 345 345 348 348 349 353 351 352 351 352 353 353 354 357 357 356 356 356 354 352 355 355 355 355 355 356 356 358 358 358 358 362 335 323 321 321 325
326 325 325 326 327 327 327 327 327 328 330 332 333 333 334 335 334 335 335 334 336 338 340 341 341 341 342 342 344 348 349 351 351 349 349 350 350 351 351 352 355 356 356 354 353 354 353 355 356 356 355 355 355 357 358 359 359 350 357 328 319 319 320
326 326 325 324 324 325 327 326 328 329 330 331 333 333 334 334 333 334 334 335 338 339 340 340 339 340 339 340 341 342 345 349 350 348 349 349 349 350 351 352 353 354 354 354 354 352 350 354 356 351 350 349 349 354 355 358 358 354 347 347 322 318 317
324 324 323 323 323 326 327 326 328 329 331 332 333 334 335 335 334 334 334 336 339 340 339 338 338 337 337 338 339 340 342 345 351 350 348 348 348 348 348 351 351 350 353 352 350 352 349 348 344 346 347 349 346 350 352 355 355 357 352 343 340 321 317
323 324 324 324 325 326 327 328 329 330 330 332 334 334 336 335 335 334 335 337 338 339 338 337 337 337 337 337 338 338 340 341 346 351 350 349 348 348 348 348 347 348 350 348 348 351 349 349 348 349 347 351 351 350 351 353 354 355 356 352 349 340 325
323 324 325 325 327 328 328 329 328 329 330 330 333 334 334 336 336 336 337 337 336 337 337 337 336 336 336 336 336 338 338 339 340 347 350 350 349 346 345 346 346 346 346 349 349 347 347 348 348 347 349 351 350 352 351 353 353 352 353 354 354 353 351
324 325 326 328 329 330 330 330 329 330 329 329 331 333 334 334 335 336 337 337 337 336 336 335 335 334 334 334 336 336 337 336 336 339 345 349 349 346 343 343 343 342 344 345 347 344 345 346 345 346 347 348 350 349 348 350 351 352 351 352 351 352 351
325 326 327 328 329 329 329 328 327 328 328 328 330 330 331 333 334 334 336 336 336 336 335 334 334 334 335 335 334 335 337 337 336 335 338 346 348 348 345 344 341 341 342 346 349 349 348 345 347 346 349 348 348 347 343 347 347 350 338 357 336 352 352
325 325 326 327 328 328 328 329 329 328 327 328 330 330 330 331 331 332 335 336 336 335 334 334 333 333 333 334 334 334 334 335 333 333 334 342 344 345 345 345 334 338 345 343 344 338 326 325 346 351 351 348 352 352 349 349 352 329 324 321 317 319 322
325 326 325 326 325 326 326 327 328 328 328 328 329 329 330 330 331 332 333 334 335 335 334 334 332 333 332 333 332 331 333 334 334 335 336 336 337 341 340 341 350 314 315 326 335 328 318 310 308 311 319 338 347 347 333 329 323 319 314 311 310 309 309
326 326 325 325 324 326 326 326 327 327 328 328 329 329 330 329 330 331 332 334 335 334 334 334 333 331 332 333 333 334 336 337 337 337 336 336 336 336 338 337 336 340 318 308 315 316 309 306 306 306 307 311 318 339 348 334 319 311 311 310 306 306 304
Wind_Speed
10 10 9 8 7 7 6 5 4 3 3 2 2 2 2 3 4 3 3 5 8 9 9 8 8 8 9 7 7 6 2 1 2 5 3 5 1 1 3 4 11 7 2 2 3 2 5 7 7 7 9 10 10 9 8 8 8 7 7 7 7 7 8
9 9 9 8 8 8 7 6 5 4 4 3 2 2 2 3 3 4 4 6 8 9 9 8 7 6 7 7 7 7 5 4 5 4 4 1 0 1 2 4 4 7 7 1 1 1 3 4 7 10 9 10 11 10 9 9 9 9 8 8 7 7 7
9 9 9 8 8 7 6 6 5 5 4 3 3 2 2 3 3 3 4 5 6 6 6 5 5 6 6 8 8 8 7 6 6 5 4 3 2 2 3 5 6 5 4 4 2 3 6 3 7 7 8 9 11 11 10 10 9 10 9 8 8 8 8
8 9 8 9 8 7 7 6 5 5 5 3 2 2 2 1 1 2 4 4 4 5 6 6 6 6 6 6 5 4 4 4 4 3 2 1 2 3 4 4 3 1 3 6 5 4 6 4 6 3 7 8 9 10 11 10 10 10 10 9 8 9 8
9 8 7 7 7 7 6 6 6 5 4 4 2 0 0 1 1 2 4 4 4 3 4 6 5 5 5 4 3 3 3 4 3 3 3 3 5 6 5 2 3 6 7 6 6 5 6 4 3 6 7 7 8 9 10 10 10 10 9 10 9 9 9
8 7 7 7 7 7 6 6 6 5 3 2 2 1 1 1 1 2 3 3 4 3 3 5 5 5 5 4 3 2 2 1 2 2 3 4 7 6 5 5 6 6 8 8 5 8 6 6 6 6 9 9 8 9 10 10 10 10 10 10 9 10 10
7 8 7 7 7 7 7 5 4 3 2 2 1 1 1 1 1 2 3 4 4 5 4 4 4 5 5 4 4 3 2 1 2 4 5 7 8 7 6 7 7 6 6 7 8 7 7 6 5 4 7 9 8 9 9 10 10 10 9 10 10 9 10
8 7 7 7 8 8 7 5 3 2 1 1 1 1 2 1 1 2 3 3 3 3 4 3 3 3 3 2 3 3 3 4 5 7 8 8 6 7 9 6 7 7 6 9 9 7 8 8 9 9 11 11 8 8 8 9 9 10 9 10 10 11 9
10 9 8 8 8 8 7 6 5 4 4 3 3 2 1 1 1 1 2 3 2 1 1 2 2 2 3 3 3 3 3 5 8 9 10 10 8 8 9 6 6 7 8 8 8 8 7 7 7 7 9 7 7 7 8 8 8 9 9 9 10 11 11
12 11 10 10 9 8 7 7 7 7 7 6 5 4 3 1 1 1 2 3 2 3 3 3 5 6 5 5 5 4 4 7 10 10 9 8 7 8 8 6 6 7 9 9 8 8 8 7 7 5 7 7 8 8 8 8 8 9 9 9 10 10 11
11 12 12 12 12 11 10 10 10 9 9 9 8 7 6 5 4 2 2 3 2 3 1 2 2 3 5 5 5 5 4 7 8 7 8 6 6 7 6 7 8 6 7 8 9 9 8 8 6 8 8 7 9 9 9 10 10 10 10 10 10 10 10
11 11 11 12 12 13 13 12 11 11 11 9 9 8 7 7 6 6 5 5 4 4 3 1 2 3 4 5 6 7 8 8 8 7 8 7 8 8 8 7 8 9 7 7 9 9 8 8 6 5 8 7 9 10 10 10 10 11 11 11 11 10 10
11 11 10 11 12 11 12 13 13 13 12 11 11 10 9 9 9 7 6 6 5 4 4 3 2 2 4 5 6 5 6 7 8 7 8 9 10 8 8 8 8 9 9 7 8 9 9 8 8 8 10 9 11 10 9 10 10 11 11 11 11 11 11
13 13 13 12 12 13 13 12 13 13 13 13 12 11 10 9 9 9 8 7 6 5 4 4 3 4 5 6 7 5 7 7 7 7 9 9 7 9 10 9 8 8 8 8 9 10 10 9 10 10 8 7 9 9 8 9 9 10 10 10 10 10 10
11 12 12 13 13 12 12 12 12 12 12 12 13 13 12 10 9 8 8 7 6 6 6 6 5 5 5 7 8 7 8 8 8 9 9 9 10 10 9 8 8 7 8 9 10 9 10 10 9 9 9 9 9 8 8 8 9 9 10 10 10 9 10
10 10 10 11 11 12 12 12 11 12 12 13 13 13 12 10 10 9 9 9 8 6 5 5 6 6 5 6 7 9 11 13 12 10 10 10 10 9 8 8 8 8 9 10 10 10 9 10 11 10 9 10 10 11 10 10 10 11 9 7 7 9 9
8 9 9 10 11 11 11 12 11 11 13 13 13 12 10 10 10 10 9 8 8 7 6 5 4 6 6 5 4 7 8 9 9 8 9 9 10 9 9 9 9 10 11 10 10 11 10 10 11 11 10 10 12 13 12 11 11 13 11 11 10 8 9
8 8 9 9 10 11 12 12 12 11 10 12 12 12 11 10 9 9 10 9 9 8 6 5 4 4 5 5 5 5 5 6 7 8 9 9 10 10 10 10 10 10 10 10 11 11 10 10 11 11 11 11 11 12 12 11 12 12 14 13 13 12 11
6 6 6 7 8 9 10 11 11 11 10 9 10 10 11 10 10 10 10 10 9 8 7 6 5 4 5 5 6 6 6 7 7 9 9 8 10 9 9 10 11 11 10 11 10 10 11 11 11 11 10 10 11 11 12 11 9 12 13 14 14 14 13
3 4 5 5 6 7 7 8 9 11 11 10 9 9 9 10 10 9 9 8 9 8 8 7 5 4 5 6 7 7 7 7 8 9 9 7 8 8 10 10 10 10 10 9 10 10 10 11 12 11 11 11 11 11 11 12 9 12 12 12 13 14 13
2 3 4 4 6 7 8 9 10 10 13 13 12 10 9 9 10 9 9 8 8 9 8 8 8 7 6 6 7 7 7 7 7 7 6 6 5 7 8 11 11 11 10 10 10 11 11 10 10 10 10 11 11 10 11 10 10 12 14 14 14 13 12
5 5 6 6 7 6 8 9 10 11 11 11 11 11 9 9 9 10 10 8 7 8 8 8 8 8 8 8 7 7 7 7 7 7 7 5 6 9 10 11 12 11 11 10 10 10 10 9 9 10 10 10 10 10 11 10 11 12 13 14 14 14 10
7 7 7 7 8 8 8 9 9 10 10 10 10 11 10 8 9 10 10 10 8 8 8 8 9 9 8 8 9 8 8 7 7 7 7 8 8 10 10 11 10 10 9 9 10 11 11 10 9 9 9 10 10 11 10 9 10 14 13 13 14 10 10
9 9 9 9 9 9 9 9 9 10 10 12 12 11 10 9 9 10 9 9 9 9 8 9 9 9 10 9 9 9 8 8 8 7 8 8 7 8 9 9 7 8 10 11 11 12 11 10 10 10 10 10 10 10 10 10 9 15 14 14 14 12 11
9 10 10 10 11 11 10 11 12 12 12 11 11 10 11 11 10 9 9 9 9 9 9 9 9 10 11 11 10 10 9 8 7 7 6 7 9 8 9 10 10 10 7 8 10 11 10 10 10 10 10 10 10 11 12 10 9 13 14 14 14 13 11
10 10 10 11 10 10 11 10 10 11 11 13 12 11 11 10 9 10 10 9 9 10 9 9 10 10 11 12 12 10 8 8 9 7 6 9 9 8 9 9 9 8 9 8 9 10 9 9 10 10 10 9 9 9 10 11 10 9 14 14 14 15 12
8 9 11 11 11 11 10 10 10 11 12 11 11 11 11 10 10 10 10 10 10 10 9 9 10 10 10 11 12 12 10 8 8 9 8 7 7 8 8 9 10 10 10 11 10 9 10 10 10 10 10 10 10 10 10 10 11 11 14 15 15 15 14
9 10 10 10 11 11 10 10 11 12 13 12 13 12 11 11 12 11 11 11 11 11 9 9 10 9 10 11 11 12 11 9 9 7 8 8 8 8 9 8 9 10 10 8 9 11 11 10 9 9 10 9 10 10 10 10 12 10 12 15 15 15 17
10 11 11 12 12 11 11 11 12 12 12 12 13 13 13 13 14 13 12 12 12 10 9 9 9 10 10 10 11 12 11 9 9 8 7 8 8 9 9 9 8 10 9 10 11 11 11 10 8 7 8 8 9 9 9 10 9 12 10 14 15 16 16
10 11 12 13 13 13 12 12 11 11 12 12 12 12 12 12 13 12 13 14 11 10 9 9 9 9 10 10 10 11 11 9 8 8 7 8 8 8 9 9 9 9 9 9 7 7 9 7 6 5 6 9 10 9 9 9 9 10 12 10 15 15 16
11 12 13 13 14 13 12 12 13 13 13 13 14 12 12 11 13 14 14 12 11 10 10 10 10 10 10 10 10 11 11 9 7 7 8 7 7 8 8 9 8 9 8 8 8 7 6 5 7 8 8 8 9 9 8 8 8 8 9 13 11 13 14
12 12 13 13 13 12 13 13 14 14 14 14 14 13 12 12 12 14 13 12 11 11 10 10 10 10 11 11 11 11 11 11 10 7 6 7 7 7 7 7 8 7 6 7 8 7 7 7 6 6 8 9 8 8 8 8 7 8 7 9 11 11 13
13 13 13 14 14 14 13 13 13 14 14 15 14 14 13 14 13 13 12 12 12 11 11 10 10 11 11 11 11 11 11 12 9 7 5 6 6 7 7 6 6 7 7 7 7 8 8 8 8 8 8 7 8 7 7 8 8 8 7 8 7 9 9
14 15 15 15 14 14 14 14 14 15 16 16 15 14 14 14 14 14 14 13 13 12 12 11 11 11 11 13 12 11 11 11 12 10 7 6 6 7 7 6 6 6 6 6 6 8 8 8 8 7 8 7 8 7 8 8 8 9 8 8 8 9 9
14 15 15 15 14 14 13 14 15 15 16 16 16 15 14 15 14 14 15 14 13 12 12 12 12 11 12 12 12 12 11 11 11 10 9 7 7 7 8 8 7 6 6 5 5 6 7 8 7 8 8 8 8 7 8 8 8 9 10 8 8 9 9
14 15 15 15 14 15 15 15 15 16 16 15 14 14 15 15 15 15 14 13 13 12 13 13 12 12 12 11 11 11 12 11 11 10 9 8 7 7 7 8 10 7 6 6 5 6 7 3 8 7 5 9 8 8 9 9 4 6 4 9 11 10 8
15 14 15 16 16 16 16 16 16 16 16 15 14 14 14 14 15 14 14 14 13 13 13 12 11 11 11 11 11 12 12 11 10 10 10 9 9 8 8 8 8 14 14 11 11 8 8 10 11 12 11 8 9 9 11 11 7 3 2 1 3 4 5
15 15 15 15 15 16 16 16 15 15 16 15 15 15 15 15 15 14 14 13 13 13 12 13 12 11 11 11 11 11 12 11 11 11 11 10 10 9 9 9 10 7 13 17 15 14 14 14 14 14 13 13 12 11 10 11 11 9 6 7 7 7 6
Wind_Direction
75 73 75 81 74 77 87 88 88 93 91 94 101 129 185 204 213 219 219 217 213 211 202 195 182 195 216 214 205 194 179 193 216 229 229 230 163 288 329 336 317 294 303 325 313 78 147 196 226 207 185 190 193 183 185 183 187 193 189 192 202 200 201
69 71 72 74 81 80 79 92 96 98 98 96 114 149 197 207 200 205 212 217 217 213 207 196 178 190 205 222 226 214 209 209 214 221 234 224 151 356 360 314 280 291 286 322 249 238 144 218 213 201 189 187 195 184 184 187 191 195 194 194 201 203 203
67 69 69 70 70 72 75 81 82 86 96 102 114 160 200 208 202 210 218 222 214 214 200 187 176 195 213 218 220 218 216 209 212 231 251 284 0 352 306 263 250 262 292 296 332 316 280 253 215 195 193 193 194 188 192 192 193 199 200 193 203 204 206
68 71 79 83 80 74 78 73 76 90 91 92 102 146 202 196 205 210 236 235 217 208 218 218 214 214 229 237 240 248 245 243 256 260 265 226 213 216 215 231 285 258 226 252 240 215 240 174 232 222 199 201 194 192 196 197 196 200 198 194 208 205 206
71 73 74 69 69 70 64 68 81 77 92 98 113 117 31 83 146 219 223 232 223 226 217 224 220 230 241 247 263 283 292 296 293 273 245 221 208 219 190 132 181 210 228 242 239 236 235 231 318 256 199 210 197 194 199 198 203 199 201 198 208 206 210
63 65 65 69 69 63 65 68 61 67 67 91 111 142 101 96 135 214 250 212 225 176 194 211 218 217 222 227 244 266 294 291 296 272 257 240 232 212 182 187 203 215 241 241 234 235 215 215 185 231 245 195 206 203 198 199 204 200 200 203 209 210 213
57 59 63 67 67 67 67 63 70 80 97 116 133 92 86 112 140 214 253 247 198 200 214 214 218 218 225 216 198 220 247 265 257 248 237 233 229 227 210 193 195 217 238 246 238 235 225 201 212 214 270 236 196 208 198 202 204 203 202 204 209 217 219
45 53 57 62 66 67 63 55 56 68 80 108 138 129 103 41 77 185 237 261 266 185 186 229 224 222 239 243 236 220 212 208 219 213 213 225 239 249 238 206 198 207 222 236 233 230 233 234 172 212 218 227 208 208 204 199 209 210 206 207 209 214 214
53 46 38 44 57 57 48 46 29 22 357 357 7 29 45 87 274 250 216 247 257 250 231 186 180 201 187 180 189 206 212 217 213 211 212 216 221 227 234 226 204 208 218 228 231 224 231 228 242 220 208 215 218 213 210 204 206 213 215 213 210 215 220
51 52 49 46 46 47 36 26 20 17 10 5 1 1 349 337 274 281 300 294 279 250 172 193 165 168 173 175 161 165 214 221 223 220 216 214 222 220 222 237 234 218 218 223 230 232 227 230 218 238 245 216 210 204 210 208 209 209 214 214 214 216 221
47 45 43 42 45 46 41 35 26 16 7 4 4 359 349 327 308 298 273 269 279 285 296 157 169 172 173 170 150 131 188 227 239 239 244 227 231 236 236 232 233 246 235 227 225 224 219 222 210 219 225 221 215 207 207 211 210 213 214 214 215 217 221
48 45 41 38 40 40 37 33 30 23 21 15 10 2 355 338 330 332 332 320 321 309 315 162 218 169 181 173 152 157 199 226 242 243 247 254 255 253 242 225 217 220 233 239 235 224 219 215 212 216 223 220 239 225 210 209 213 213 218 217 216 217 220
53 49 43 39 41 40 37 35 30 26 24 21 18 15 7 354 356 358 1 346 335 321 301 292 247 195 198 167 153 161 229 239 237 236 241 238 241 245 232 221 214 215 219 222 232 236 228 220 210 228 222 215 224 227 221 213 215 215 215 221 223 222 221
53 46 39 36 38 39 37 33 28 24 22 21 20 18 13 8 5 357 358 350 346 339 317 296 270 216 205 174 150 162 235 242 241 244 239 237 240 236 228 220 217 211 209 215 221 225 231 229 224 224 228 229 224 226 227 225 222 223 224 224 228 230 229
40 38 33 27 23 25 30 32 30 25 22 20 18 18 12 7 8 4 359 355 352 340 328 320 296 260 214 190 159 179 232 250 245 234 226 229 234 231 227 224 222 219 212 209 214 219 221 225 227 229 224 222 230 227 225 225 224 222 220 217 219 225 228
25 27 28 27 23 17 18 21 23 23 23 20 18 14 12 4 358 355 355 357 349 350 337 318 304 292 262 226 173 183 198 212 216 211 217 224 234 232 226 223 221 220 220 217 214 216 216 219 222 220 220 221 217 217 212 219 227 230 239 260 229 214 221
34 28 25 19 19 14 11 13 15 14 15 16 13 10 7 3 356 351 353 354 357 354 350 329 312 304 291 271 232 184 197 213 211 216 222 217 227 226 222 226 223 218 216 215 215 216 214 214 220 218 216 221 223 222 220 222 226 213 217 227 242 234 215
40 34 25 16 11 6 2 360 5 8 10 11 10 7 2 358 356 352 352 349 352 349 342 334 306 289 285 274 262 231 219 241 230 222 219 225 228 229 225 224 222 220 217 215 214 216 212 211 216 214 215 220 222 223 222 224 227 193 202 218 219 226 226
31 30 22 10 4 1 355 347 346 354 1 3 5 2 358 353 351 353 351 350 346 339 338 330 318 288 272 267 254 242 220 219 240 241 232 222 234 233 232 226 224 222 218 215 217 217 217 216 216 215 216 221 224 226 226 232 207 182 198 207 208 213 226
17 5 356 350 343 343 344 338 338 340 349 0 359 351 350 354 350 346 346 350 345 343 336 322 310 288 278 266 256 248 236 231 231 241 246 241 234 237 244 243 230 231 229 227 221 220 220 220 221 218 214 220 224 229 234 234 218 185 198 207 207 208 210
8 356 338 334 339 341 341 337 339 342 345 350 349 343 341 349 352 342 342 347 349 344 334 327 315 303 289 274 272 264 249 231 230 245 254 257 267 268 256 248 236 231 230 230 226 222 222 219 218 218 218 220 222 227 229 232 207 188 199 208 210 209 208
9 355 349 341 322 331 334 332 332 334 337 336 334 334 332 340 346 343 339 336 343 340 337 329 321 310 298 290 272 265 260 248 235 209 209 213 214 229 229 239 243 232 230 230 230 227 224 222 221 219 221 220 222 226 231 231 192 194 196 204 210 206 215
349 340 333 325 330 334 319 317 318 320 318 316 317 319 326 333 339 339 335 334 339 331 331 330 325 321 311 301 295 289 282 272 251 246 219 194 219 232 239 237 243 251 236 235 239 232 227 222 219 220 219 219 223 227 230 236 186 185 193 199 206 202 225
334 331 331 332 324 316 320 316 316 315 315 309 306 306 315 321 327 329 329 333 331 329 325 328 327 323 316 309 301 298 297 292 295 286 280 268 224 223 234 238 230 245 241 229 229 235 233 229 227 223 225 223 221 220 231 237 203 180 189 194 191 200 224
324 326 325 322 321 319 323 330 323 313 300 297 300 314 316 315 317 317 321 324 326 322 319 324 327 323 320 316 311 309 306 307 303 290 280 263 266 266 263 247 237 233 239 258 251 242 235 233 233 231 228 229 232 229 230 235 220 180 189 191 191 199 227
323 324 321 322 320 338 328 311 301 300 311 314 317 316 314 315 312 312 315 317 319 315 316 323 319 314 311 310 309 308 311 306 311 300 290 286 282 270 252 252 247 238 238 237 246 243 236 232 235 234 233 226 224 231 229 231 236 201 185 192 195 200 221
318 322 322 322 333 335 313 318 317 318 312 311 315 313 311 313 310 309 311 312 311 309 314 319 312 306 306 306 307 307 307 304 306 310 309 299 293 289 279 267 263 243 233 231 235 242 240 232 234 237 239 234 227 225 222 227 231 223 189 197 194 198 212
323 323 318 322 320 310 315 313 315 309 307 312 311 310 308 305 303 304 304 303 304 311 313 311 308 302 303 303 302 303 305 307 308 309 302 297 291 285 278 270 263 262 259 246 244 240 236 233 232 235 239 240 238 236 234 228 226 235 177 189 191 194 200
323 321 322 318 312 318 317 313 312 311 308 307 307 306 303 302 298 297 297 293 298 307 307 308 302 301 301 300 298 297 300 303 304 303 304 300 296 286 281 278 263 253 257 256 247 241 240 236 235 237 240 244 238 234 232 231 221 221 212 185 193 193 198
317 316 315 315 317 317 319 309 306 306 301 299 296 295 297 297 295 295 293 292 299 300 302 298 298 298 298 297 295 296 296 302 301 298 301 304 298 290 286 280 269 255 248 255 260 274 266 239 214 231 256 251 246 238 235 232 237 208 211 196 190 199 200
313 312 310 311 312 314 309 306 305 299 294 292 291 292 291 290 290 291 289 293 298 298 296 296 295 293 292 294 295 295 295 295 290 289 300 301 295 289 286 284 280 263 251 251 251 245 253 263 252 230 231 243 248 252 242 241 236 245 200 203 195 198 207
309 309 307 307 307 310 307 299 296 294 292 292 294 296 295 292 290 289 291 295 294 292 291 291 291 289 289 290 291 292 294 291 291 279 272 288 289 286 288 291 289 278 256 256 256 244 235 238 234 237 236 236 237 244 251 242 244 241 234 192 203 203 207
311 309 310 308 308 307 303 304 301 300 300 300 303 302 301 299 296 292 292 292 292 289 288 288 285 283 282 282 286 288 290 289 284 286 267 261 273 279 278 276 285 287 279 258 252 253 249 241 245 242 238 238 233 231 234 245 244 243 239 240 232 236 220
311 311 309 308 306 307 305 304 303 301 303 302 302 301 299 296 294 294 295 296 296 296 293 285 279 280 282 283 283 282 283 284 284 278 270 250 245 268 280 276 276 279 279 278 260 260 257 250 249 254 256 244 238 233 236 234 235 235 234 224 225 233 238
308 304 305 305 307 305 300 301 301 301 300 301 301 301 300 298 297 297 297 297 297 298 294 292 286 279 277 277 275 274 275 276 279 275 271 266 255 249 256 270 276 279 283 271 273 261 260 266 257 249 254 259 257 253 243 240 232 229 216 220 202 214 224
304 303 304 305 304 304 303 304 303 303 302 299 299 299 299 299 298 298 299 300 299 298 294 292 289 286 279 274 271 270 270 271 273 277 274 269 268 265 259 238 225 246 261 282 267 263 278 260 260 267 265 267 263 252 251 251 259 25 182 179 179 195 201
307 308 309 309 308 307 309 309 307 303 301 300 299 296 294 294 295 297 298 300 298 296 293 291 287 283 279 274 271 270 273 275 275 274 273 268 265 267 268 273 225 211 224 233 255 265 271 277 267 275 272 253 266 270 280 287 291 203 152 317 246 228 213
312 307 306 306 306 309 309 308 307 306 303 303 300 298 297 296 294 293 292 294 295 295 293 288 285 282 279 276 272 272 268 267 271 273 270 268 264 261 270 268 273 257 215 222 229 237 246 248 251 254 255 253 243 252 268 264 260 277 246 221 212 225 237